Санта-Фе

США     35°41′30″N   105°56′44″W
темп.,
°C
ветер,
м/с
пор.,
м/с
влажн.,
%
обл.,
%
осадки,
мм/ч
давл.,
гПа
погр.,
м
19 апреля, пн
пн1900:00+3юв22520 0.0 102026
03:00+2вюв32561 0.0 102024
06:00+1в22660 0.0 101912
09:00+6сз23450 0.0 1017573
12:00+11з25281 0.0 10131743
15:00+15зсз581650 0.0 10083387
18:00+14зсз1011130 0.0 10073152
21:00+9зсз23183 0.0 100929
20 апреля, вт
вт2000:00+7ю122289 0.0 100911
03:00+7юз22271 0.0 100915
06:00+4вюв22380 0.0 101218
09:00+5ю67390 0.0 1016683
12:00+11ю1013200 0.0 10132418
15:00+15зюз91316100 0.0 10113181
18:00+15з91316100 0.0 10093123
21:00+10вюв2222100 0.0 101139
21 апреля, ср
ср2100:00+5юв71041100 0.0 1016432
03:00+4ююв3645100 0.0 1016323
06:00+3ююв4846100 0.0 1017375
09:00+6ю783897 0.0 1016572
12:00+11ю893032 0.0 10131073
15:00+15юз51320100 0.0 10082772
18:00+16зюз41017100 0.0 10042221
21:00+11вюв6634100 0.0 1007201
22 апреля, чт
чт2200:00+8юв465086 0.0 1009155
03:00+5юв444899 0.0 101053
06:00+4юв444928 0.0 101147
09:00+9ююз47300 0.0 1011901
12:00+13юз79202 0.0 10082462
15:00+16зюз10141468 0.0 10053692
18:00+16з10131326 0.0 10033737
21:00+10зсз331924 0.0 100721
23 апреля, пт
пт2300:00+8юв332151 0.0 100820
03:00+6юв22260 0.0 100813
06:00+4вюв11360 0.0 100911
09:00+10юз35340 0.0 1008968
12:00+15сз4823100 0.0 10053351
15:00+15сз11111699 0.1 10033679
18:00+14зсз8131698 0.1 10043704
21:00+9ссв46291 0.0 1008115